This is the latest recevied weather packets stored in our database for station/object N5VIS. If no packets are shown the sender has not sent any weather packets the latest 10 day(s).
| Time | Temp. | Humidity | Pressure | Rain* | Wind** | Luminosity | Snow |
|---|---|---|---|---|---|---|---|
| 1777909451 | - | - | - | 0 mm | - | - | - |
| 1777909150 | - | - | - | 0 mm | - | - | - |
| 1777908848 | - | - | - | 0 mm | - | - | - |
| 1777908544 | 22.78° C | 56% | 1019 hPa | 0 mm | - | - | - |
| 1777908241 | 22.78° C | 56% | 1019.1 hPa | 0 mm | - | - | - |
| 1777907937 | 22.78° C | 57% | 1018.9 hPa | 0 mm | - | - | - |
| 1777907633 | 23.33° C | 55% | 1019.2 hPa | 0 mm | - | - | - |
| 1777907328 | 23.33° C | 55% | 1019.3 hPa | 0 mm | - | - | - |
| 1777907025 | 22.78° C | 54% | 1019 hPa | 0 mm | - | - | - |
| 1777906723 | 22.78° C | 55% | 1019 hPa | 0 mm | - | - | - |
| 1777906419 | 22.22° C | 55% | 1019.1 hPa | 0 mm | - | - | - |
| 1777906116 | 22.22° C | 56% | 1018.9 hPa | 0 mm | - | - | - |
| 1777905812 | 21.67° C | 58% | 1019.1 hPa | 0 mm | - | - | - |
| 1777905510 | 21.67° C | 56% | 1019.3 hPa | 0 mm | - | - | - |
| 1777905206 | 21.67° C | 56% | 1019.3 hPa | 0 mm | - | - | - |
| 1777904904 | 21.67° C | 55% | 1019.1 hPa | 0 mm | - | - | - |
| 1777904601 | 21.11° C | 58% | 1019.3 hPa | 0 mm | - | - | - |
| 1777904298 | 21.11° C | 57% | 1019.4 hPa | 0 mm | - | - | - |
| 1777903995 | 21.11° C | 57% | 1019.3 hPa | 0 mm | - | - | - |
| 1777903692 | 21.11° C | 58% | 1019.2 hPa | 0 mm | - | - | - |
| 1777903387 | 21.11° C | 58% | 1019.3 hPa | 0 mm | - | - | - |
| 1777903084 | 21.11° C | 57% | 1019.4 hPa | 0 mm | - | - | - |
| 1777902780 | 20.56° C | 57% | 1019.1 hPa | 0 mm | - | - | - |
| 1777902478 | 20° C | 58% | 1019.4 hPa | 0 mm | - | - | - |
| 1777902175 | 20.56° C | 58% | 1019.2 hPa | 0 mm | - | - | - |
* Rain latest hour (hover to see other rain measurements)
** Current wind speed in m/s (hover to see current wind gust speed)